Vorticity
10 4 4 4 4 4 4 5 5 3 4 4 3 5 5 4 3 1 1 2 2 3 1 3 2 2 6 8 6 10 9 12 15 12 15 -5 0 -2 -1 5 -0 6 3 -1 16
4 8 8 2 4 5 4 4 4 3 4 6 3 7 6 4 4 3 2 -2 3 2 1 5 2 6 1 2 14 7 13 15 11 9 8 5 4 -6 -1 -1 8 14 -0 1 6
8 4 7 9 6 1 4 5 4 2 2 5 5 5 -4 5 5 4 4 4 0 2 6 4 2 5 4 3 1 12 18 10 10 4 4 3 7 -2 -2 21 8 19 10 2 10
12 10 4 4 7 10 4 1 -0 -4 2 -1 -1 5 5 7 6 7 2 4 6 1 1 3 3 2 1 8 1 2 11 14 10 8 3 8 2 1 -1 7 2 7 1 2 1
6 14 7 5 5 5 7 9 4 3 7 12 -0 1 -1 10 2 6 8 2 3 4 -3 5 3 4 4 5 6 -3 4 14 17 11 5 7 5 2 4 -0 22 -4 0 4 5
3 3 11 7 5 4 6 5 7 8 4 -1 5 3 -1 5 -4 5 -0 4 9 0 5 3 6 3 2 4 -3 11 0 11 9 17 10 5 3 5 2 7 9 13 2 6 9
7 4 5 11 8 4 6 3 7 7 8 10 4 1 7 -5 1 8 7 0 6 1 14 13 0 0 6 4 2 5 5 3 12 9 16 6 7 13 10 5 5 12 9 3 7
7 7 6 6 10 6 2 5 9 3 6 6 8 17 8 18 16 7 1 10 -5 11 -8 6 -4 8 2 5 5 1 1 1 2 16 6 12 6 7 -0 11 8 10 8 1 3
5 3 6 7 6 7 9 13 2 1 30 6 6 6 4 6 11 10 5 8 11 5 1 -3 5 -4 29 3 4 1 3 1 -1 8 12 12 8 13 8 7 7 8 8 3 1
5 1 9 3 3 4 6 5 17 -18 2 5 19 -0 3 -2 3 7 8 4 2 7 5 6 -3 10 5 10 -0 8 6 3 4 7 9 14 11 10 6 8 8 5 9 9 7
12 14 4 7 7 -2 2 7 9 9 10 -22 10 5 27 21 18 2 10 9 8 9 3 8 -3 15 11 17 15 -1 12 0 21 -10 5 26 12 10 9 3 5 9 5 9 11
13 12 8 10 8 10 5 1 5 2 8 6 13 19 -23 -5 8 18 25 10 5 8 11 4 6 7 6 11 15 14 2 4 16 2 9 11 12 7 16 7 6 6 4 6 6
11 16 13 14 13 10 9 5 7 4 3 4 5 6 12 -0 0 -5 6 13 12 9 5 5 2 4 -0 7 -1 7 4 6 7 2 6 2 16 4 7 14 9 2 3 4 5
31 19 13 11 8 17 10 14 9 7 9 5 5 8 3 10 6 -1 1 -19 18 14 9 9 15 6 6 12 8 11 11 2 5 10 12 2 6 13 5 5 11 9 6 7 8
44 33 25 27 13 8 13 10 10 14 10 8 4 11 6 3 4 19 5 6 3 8 10 10 6 9 2 11 8 4 9 0 7 6 8 7 10 9 2 5 7 8 8 3 4
18 47 38 22 22 14 16 13 10 13 6 7 4 6 7 7 8 -12 12 -3 15 23 16 7 9 9 7 7 8 10 9 2 3 16 12 4 15 19 12 6 5 4 10 12 5
11 13 21 51 39 23 17 11 12 1 6 2 11 5 9 11 8 7 0 16 -3 -3 2 0 14 3 4 4 8 7 7 4 4 11 -7 7 10 7 16 20 10 9 11 6 6
3 9 15 13 37 38 22 22 15 2 6 9 11 13 4 14 5 12 -1 9 4 5 -9 -5 -1 11 7 18 12 3 5 -4 -0 4 6 8 16 8 10 17 2 6 4 6 7
4 4 18 16 12 14 35 26 26 13 9 14 17 12 12 9 16 -5 8 3 2 10 11 4 5 -1 -2 19 21 8 -11 22 6 11 5 10 6 5 1 7 9 1 13 11 8
5 3 -8 22 17 12 9 23 47 19 20 9 8 12 6 10 8 4 -12 10 0 -1 11 13 18 9 4 14 11 11 9 11 3 8 1 4 12 3 7 9 12 12 2 8 10
4 7 -2 13 15 17 2 16 16 53 33 15 13 11 3 9 10 11 13 17 1 21 24 19 12 9 15 9 9 13 -6 17 2 11 7 2 9 4 0 8 6 13 28 10 8
2 9 -1 10 17 10 -5 5 11 29 28 46 35 26 10 9 3 4 8 13 -2 -9 2 -8 6 13 24 15 14 5 29 11 5 5 -4 -1 25 10 7 3 -1 2 10 15 13
4 6 1 4 -13 11 13 9 8 -5 7 20 31 48 19 10 12 -21 31 8 12 -6 -4 -6 -9 22 5 9 11 8 7 7 16 16 11 6 -12 8 6 3 7 9 3 18 16
7 5 3 1 10 8 0 -7 3 5 -0 5 15 42 51 15 44 13 -29 43 1 9 9 -13 19 10 -13 -14 28 13 14 3 16 14 11 1 2 5 12 1 15 -1 12 9 14
4 5 5 8 1 14 32 42 37 14 4 8 14 8 32 34 17 31 39 -14 11 30 11 25 32 14 -15 10 -12 -7 -5 -11 3 18 24 -2 14 20 6 11 16 11 6 9 1
2 10 11 30 29 22 5 14 20 42 16 3 24 18 7 63 -47 45 19 34 8 -11 -7 -21 -7 -11 5 -25 17 16 -3 -5 11 -8 14 10 20 13 8 10 13 9 5 10 10
13 25 27 26 24 13 12 7 11 13 40 23 25 5 -2 49 81 -53 -25 47 31 23 9 54 4 15 16 -33 -17 7 22 -5 -8 9 9 9 7 20 10 8 4 11 11 15 18
Height
5763 5766 5769 5772 5776 5781 5784 5788 5792 5794 5798 5802 5804 5806 5810 5814 5817 5821 5822 5823 5824 5824 5827 5828 5827 5828 5827 5827 5824 5821 5826 5829 5830 5831 5829 5825 5825 5828 5831 5829 5824 5830 5834 5836 5841
5748 5752 5756 5759 5763 5767 5771 5775 5780 5783 5787 5791 5796 5798 5802 5807 5810 5813 5812 5814 5817 5818 5821 5823 5821 5823 5825 5821 5820 5818 5822 5825 5822 5823 5825 5822 5822 5821 5825 5824 5825 5826 5829 5831 5834
5732 5737 5742 5746 5750 5754 5759 5763 5767 5771 5776 5781 5785 5788 5794 5798 5802 5805 5803 5806 5810 5811 5813 5815 5815 5817 5819 5818 5815 5815 5818 5816 5816 5815 5817 5818 5818 5817 5818 5821 5819 5821 5822 5825 5828
5716 5721 5725 5731 5736 5741 5745 5750 5754 5758 5763 5768 5773 5778 5783 5788 5792 5794 5797 5799 5802 5804 5805 5807 5808 5811 5813 5813 5810 5811 5811 5811 5811 5809 5810 5812 5813 5812 5815 5819 5816 5816 5814 5817 5823
5699 5704 5709 5714 5720 5726 5731 5736 5741 5746 5749 5754 5759 5764 5769 5776 5785 5784 5788 5789 5791 5794 5796 5799 5801 5803 5804 5806 5805 5806 5806 5808 5807 5804 5805 5806 5807 5811 5814 5815 5817 5813 5811 5811 5815
5680 5686 5692 5698 5704 5710 5717 5722 5727 5732 5736 5741 5745 5750 5755 5763 5776 5770 5775 5780 5782 5786 5787 5791 5794 5792 5796 5798 5799 5798 5800 5803 5803 5803 5800 5802 5804 5803 5812 5811 5813 5808 5807 5805 5809
5662 5668 5675 5681 5688 5696 5701 5708 5714 5718 5722 5727 5731 5735 5742 5757 5759 5761 5765 5768 5772 5777 5776 5781 5784 5782 5788 5790 5791 5791 5792 5795 5799 5798 5795 5794 5792 5797 5807 5804 5804 5808 5802 5798 5801
5643 5652 5657 5663 5671 5679 5686 5692 5700 5704 5707 5711 5715 5720 5729 5741 5747 5750 5753 5756 5762 5766 5768 5768 5770 5772 5775 5780 5782 5782 5783 5789 5793 5788 5791 5786 5783 5793 5797 5796 5797 5801 5799 5794 5795
5623 5631 5639 5646 5652 5661 5669 5677 5686 5688 5692 5694 5700 5708 5716 5724 5733 5741 5737 5745 5749 5754 5757 5759 5760 5762 5766 5768 5771 5771 5777 5780 5783 5781 5779 5778 5776 5791 5788 5786 5789 5792 5794 5789 5790
5601 5609 5619 5628 5635 5643 5652 5660 5667 5671 5677 5677 5682 5695 5703 5707 5721 5727 5726 5730 5737 5741 5744 5746 5748 5750 5755 5756 5757 5769 5768 5769 5769 5778 5768 5771 5768 5780 5779 5778 5782 5784 5786 5786 5787
5579 5588 5598 5607 5616 5624 5634 5644 5651 5652 5656 5659 5672 5684 5686 5689 5699 5714 5714 5715 5719 5725 5730 5734 5735 5733 5746 5753 5756 5759 5756 5757 5762 5770 5760 5761 5762 5765 5773 5768 5771 5777 5778 5780 5784
5557 5566 5576 5585 5594 5604 5614 5624 5626 5628 5633 5642 5653 5665 5673 5674 5681 5690 5700 5702 5704 5710 5723 5723 5718 5728 5740 5742 5743 5745 5746 5746 5754 5760 5756 5754 5751 5754 5764 5762 5763 5769 5768 5771 5776
5534 5544 5554 5563 5569 5582 5594 5604 5604 5603 5610 5621 5638 5646 5660 5666 5670 5678 5686 5691 5695 5696 5703 5707 5715 5723 5726 5730 5731 5733 5735 5743 5745 5752 5749 5744 5741 5744 5750 5756 5755 5759 5760 5761 5766
5512 5521 5530 5538 5552 5564 5575 5579 5583 5585 5585 5602 5615 5632 5639 5652 5655 5665 5669 5678 5685 5685 5691 5693 5702 5705 5710 5713 5722 5721 5732 5735 5737 5736 5734 5744 5725 5735 5737 5741 5748 5752 5751 5753 5757
5492 5500 5507 5514 5530 5545 5552 5554 5559 5565 5552 5587 5603 5617 5626 5636 5652 5652 5661 5661 5668 5677 5681 5685 5689 5698 5700 5707 5716 5715 5724 5726 5725 5724 5723 5725 5719 5720 5729 5729 5738 5744 5743 5745 5748
5480 5482 5487 5493 5510 5523 5526 5529 5536 5532 5530 5564 5584 5600 5610 5626 5634 5635 5636 5647 5655 5660 5669 5675 5675 5681 5687 5694 5700 5710 5712 5713 5712 5713 5703 5710 5718 5713 5720 5724 5727 5736 5739 5736 5738
5471 5473 5475 5479 5497 5492 5497 5502 5505 5497 5525 5549 5573 5585 5599 5605 5614 5615 5622 5626 5636 5644 5656 5662 5665 5667 5678 5679 5686 5692 5696 5696 5694 5692 5687 5703 5705 5709 5711 5717 5725 5727 5728 5728 5729
5461 5462 5467 5472 5474 5474 5472 5477 5467 5492 5512 5549 5560 5567 5573 5587 5593 5602 5602 5610 5621 5632 5640 5644 5652 5660 5660 5665 5673 5676 5682 5684 5681 5684 5690 5693 5687 5693 5703 5706 5714 5717 5720 5719 5718
5452 5456 5460 5460 5461 5461 5456 5447 5458 5484 5507 5529 5540 5539 5549 5562 5579 5583 5584 5597 5611 5619 5627 5631 5639 5650 5652 5654 5658 5668 5662 5679 5677 5678 5678 5680 5678 5680 5690 5697 5700 5704 5707 5706 5710
5440 5444 5450 5448 5449 5445 5438 5441 5451 5471 5491 5505 5503 5518 5531 5546 5556 5556 5565 5584 5596 5605 5617 5619 5625 5633 5638 5641 5638 5645 5658 5656 5656 5657 5659 5660 5669 5671 5676 5685 5690 5692 5694 5697 5700
5429 5433 5439 5435 5433 5429 5422 5438 5452 5463 5471 5477 5485 5495 5509 5525 5536 5539 5548 5578 5587 5597 5602 5613 5608 5619 5620 5619 5628 5630 5632 5636 5643 5644 5647 5650 5654 5660 5667 5669 5675 5681 5682 5685 5689
5415 5421 5423 5423 5419 5418 5417 5440 5446 5449 5451 5454 5462 5473 5490 5509 5516 5525 5529 5555 5577 5584 5585 5597 5596 5599 5608 5610 5612 5616 5620 5627 5629 5636 5637 5642 5644 5648 5653 5657 5665 5670 5674 5676 5679
5399 5403 5404 5404 5402 5407 5417 5421 5427 5436 5440 5445 5445 5458 5476 5491 5494 5504 5516 5541 5553 5560 5568 5580 5575 5584 5590 5595 5596 5603 5608 5614 5619 5623 5626 5628 5634 5641 5642 5645 5652 5661 5662 5664 5667
5384 5385 5387 5382 5393 5394 5398 5406 5411 5421 5427 5433 5437 5447 5457 5467 5477 5485 5502 5524 5537 5542 5558 5560 5561 5566 5574 5589 5597 5591 5599 5603 5606 5609 5619 5618 5625 5627 5632 5633 5644 5649 5653 5654 5657
5368 5370 5372 5369 5371 5376 5379 5387 5389 5396 5408 5416 5418 5422 5436 5446 5461 5466 5485 5510 5519 5527 5535 5534 5540 5550 5565 5574 5576 5580 5584 5588 5590 5601 5600 5615 5614 5620 5623 5630 5635 5638 5640 5643 5646
5352 5348 5351 5353 5357 5355 5357 5361 5367 5380 5386 5399 5407 5419 5426 5429 5452 5461 5470 5483 5499 5514 5514 5519 5520 5533 5542 5555 5557 5561 5569 5574 5581 5588 5591 5594 5601 5608 5608 5615 5623 5627 5631 5635 5639
5339 5334 5331 5335 5335 5339 5340 5350 5359 5367 5371 5384 5397 5403 5403 5416 5437 5442 5451 5467 5478 5486 5495 5501 5509 5512 5519 5539 5540 5532 5550 5563 5573 5575 5583 5580 5600 5598 5599 5605 5613 5619 5622 5624 5625